| time (UTC) | temp C | wind direction | speed KPH | gust KPH | rain 1hr cm | rain 24hr cm | rain mn cm | humidity % | barometer mb |
| 20260831082550 | 18 | 197 | 9.7 | 25.7 | 0.00 | 0.71 | 0.71 | 82 | 1014.6 |
| 20260831082051 | 18 | 159 | 11.3 | 25.7 | 0.00 | 0.71 | 0.71 | 83 | 1014.6 |
| 20260831081550 | 18 | 163 | 6.4 | 17.7 | 0.00 | 0.71 | 0.71 | 84 | 1014.7 |
| 20260831081050 | 18 | 177 | 9.7 | 17.7 | 0.00 | 0.71 | 0.71 | 84 | 1014.7 |
| 20260831080554 | 18 | 215 | 11.3 | 17.7 | 0.00 | 0.71 | 0.71 | 84 | 1014.6 |
| 20260831080049 | 18 | 209 | 11.3 | 27.4 | 0.00 | 0.71 | 0.71 | 84 | 1014.7 |
| 20260831075553 | 19 | 206 | 11.3 | 27.4 | 0.00 | 0.71 | 0.71 | 84 | 1014.7 |
| 20260831075048 | 19 | 170 | 14.5 | 20.9 | 0.00 | 0.71 | 0.71 | 84 | 1014.7 |
| 20260831074550 | 19 | 214 | 14.5 | 22.5 | 0.00 | 0.71 | 0.71 | 85 | 1014.8 |
| 20260831074048 | 18 | 201 | 12.9 | 22.5 | 0.00 | 0.71 | 0.71 | 87 | 1014.8 |
| 20260831073546 | 18 | 211 | 12.9 | 27.4 | 0.00 | 0.71 | 0.71 | 88 | 1014.8 |
| 20260831073045 | 18 | 198 | 12.9 | 27.4 | 0.00 | 0.71 | 0.71 | 88 | 1014.8 |
| 20260831072543 | 18 | 251 | 11.3 | 24.1 | 0.00 | 0.71 | 0.71 | 89 | 1014.8 |
| 20260831072045 | 18 | 202 | 14.5 | 24.1 | 0.00 | 0.71 | 0.71 | 89 | 1014.7 |
| 20260831071542 | 18 | 215 | 11.3 | 22.5 | 0.00 | 0.71 | 0.71 | 90 | 1014.7 |
| 20260831071042 | 18 | 215 | 12.9 | 20.9 | 0.00 | 0.71 | 0.71 | 90 | 1014.7 |
| 20260831070541 | 18 | 198 | 9.7 | 19.3 | 0.00 | 0.71 | 0.71 | 91 | 1014.7 |
| 20260831070045 | 18 | 205 | 8.0 | 19.3 | 0.00 | 0.71 | 0.71 | 92 | 1014.8 |
| 20260831065540 | 18 | 219 | 9.7 | 19.3 | 0.00 | 0.71 | 0.71 | 92 | 1014.8 |
| 20260831065040 | 17 | 179 | 11.3 | 19.3 | 0.00 | 0.71 | 0.71 | 92 | 1014.7 |
| 20260831064539 | 17 | 198 | 9.7 | 17.7 | 0.00 | 0.71 | 0.71 | 93 | 1014.7 |
| 20260831064040 | 17 | 205 | 8.0 | 19.3 | 0.00 | 0.71 | 0.71 | 93 | 1014.8 |
| 20260831063537 | 17 | 231 | 6.4 | 20.9 | 0.00 | 0.71 | 0.71 | 93 | 1014.8 |
| 20260831063038 | 17 | 185 | 11.3 | 20.9 | 0.00 | 0.71 | 0.71 | 94 | 1014.7 |
| 20260831062536 | 17 | 191 | 9.7 | 16.1 | 0.00 | 0.71 | 0.71 | 94 | 1014.7 |
| 20260831062036 | 17 | 219 | 9.7 | 14.5 | 0.00 | 0.71 | 0.71 | 94 | 1014.7 |
| 20260831061536 | 17 | 208 | 9.7 | 24.1 | 0.00 | 0.71 | 0.71 | 94 | 1014.7 |
| 20260831061034 | 16 | 259 | 9.7 | 24.1 | 0.00 | 0.71 | 0.71 | 94 | 1014.6 |
| 20260831060534 | 16 | 221 | 8.0 | 16.1 | 0.00 | 0.71 | 0.71 | 94 | 1014.5 |
| 20260831060034 | 16 | 242 | 8.0 | 14.5 | 0.00 | 0.71 | 0.71 | 94 | 1014.3 |
| 20260831055532 | 16 | 215 | 8.0 | 14.5 | 0.00 | 0.71 | 0.71 | 94 | 1014.3 |
| 20260831055034 | 16 | 219 | 8.0 | 16.1 | 0.00 | 0.71 | 0.71 | 94 | 1014.3 |
| 20260831054531 | 16 | 191 | 8.0 | 22.5 | 0.00 | 0.71 | 0.71 | 94 | 1014.0 |
| 20260831054033 | 16 | 231 | 12.9 | 20.9 | 0.00 | 0.71 | 0.71 | 94 | 1014.0 |
| 20260831053530 | 16 | 236 | 9.7 | 19.3 | 0.00 | 0.71 | 0.71 | 94 | 1013.9 |
| 20260831053030 | 16 | 207 | 11.3 | 24.1 | 0.00 | 0.71 | 0.71 | 94 | 1013.9 |
| 20260831052529 | 16 | 211 | 8.0 | 14.5 | 0.00 | 0.71 | 0.71 | 94 | 1013.7 |
| 20260831052028 | 16 | 229 | 6.4 | 16.1 | 0.00 | 0.71 | 0.71 | 94 | 1013.8 |
| 20260831051538 | 16 | 207 | 6.4 | 14.5 | 0.00 | 0.71 | 0.71 | 94 | 1013.6 |
| 20260831051028 | 16 | 223 | 4.8 | 12.9 | 0.00 | 0.71 | 0.71 | 94 | 1013.6 |
| 20260831050527 | 16 | 227 | 4.8 | 12.9 | 0.00 | 0.71 | 0.71 | 94 | 1013.7 |
| 20260831050031 | 16 | 209 | 6.4 | 12.9 | 0.00 | 0.71 | 0.71 | 94 | 1013.5 |
| 20260831045528 | 16 | 209 | 6.4 | 12.9 | 0.00 | 0.71 | 0.71 | 94 | 1013.5 |
| 20260831045028 | 16 | 179 | 6.4 | 12.9 | 0.00 | 0.71 | 0.71 | 94 | 1013.5 |
| 20260831044528 | 16 | 199 | 4.8 | 14.5 | 0.00 | 0.71 | 0.71 | 94 | 1013.5 |
| 20260831044028 | 16 | 219 | 6.4 | 12.9 | 0.00 | 0.71 | 0.71 | 94 | 1013.4 |
| 20260831043526 | 16 | 191 | 4.8 | 11.3 | 0.00 | 0.71 | 0.71 | 93 | 1013.3 |
| 20260831043026 | 16 | 194 | 6.4 | 12.9 | 0.00 | 0.71 | 0.71 | 93 | 1013.2 |
| 20260831042526 | 16 | 186 | 6.4 | 12.9 | 0.00 | 0.71 | 0.71 | 93 | 1013.2 |
| 20260831042026 | 16 | 197 | 4.8 | 12.9 | 0.00 | 0.71 | 0.71 | 93 | 1013.1 |
| 20260831041538 | 16 | 193 | 3.2 | 9.7 | 0.00 | 0.71 | 0.71 | 93 | 1013.1 |
| 20260831041026 | 16 | 194 | 4.8 | 12.9 | 0.00 | 0.71 | 0.71 | 93 | 1013.1 |
| 20260831040526 | 16 | 174 | 4.8 | 12.9 | 0.00 | 0.71 | 0.71 | 93 | 1013.0 |
| 20260831040036 | 16 | 189 | 4.8 | 11.3 | 0.03 | 0.71 | 0.71 | 93 | 1013.1 |
| 20260831035525 | 16 | 179 | 4.8 | 11.3 | 0.03 | 0.71 | 0.71 | 93 | 1013.0 |
| 20260831035024 | 16 | 177 | 3.2 | 9.7 | 0.05 | 0.71 | 0.71 | 93 | 1013.1 |
| 20260831034524 | 16 | 171 | 3.2 | 8.0 | 0.05 | 0.71 | 0.71 | 93 | 1013.0 |
| 20260831034027 | 16 | 172 | 4.8 | 8.0 | 0.05 | 0.71 | 0.71 | 93 | 1013.0 |
| 20260831033524 | 16 | 173 | 6.4 | 8.0 | 0.08 | 0.71 | 0.71 | 93 | 1013.1 |
| 20260831033024 | 16 | 172 | 3.2 | 8.0 | 0.08 | 0.71 | 0.71 | 93 | 1013.1 |
| 20260831032527 | 16 | 172 | 4.8 | 8.0 | 0.08 | 0.71 | 0.71 | 93 | 1013.1 |
| 20260831032023 | 16 | 174 | 3.2 | 8.0 | 0.08 | 0.71 | 0.71 | 93 | 1013.2 |
| 20260831031523 | 16 | 173 | 4.8 | 8.0 | 0.10 | 0.71 | 0.71 | 93 | 1013.3 |
| 20260831031024 | 16 | 173 | 4.8 | 8.0 | 0.13 | 0.71 | 0.71 | 93 | 1013.2 |
| 20260831030523 | 15 | 177 | 3.2 | 8.0 | 0.20 | 0.71 | 0.71 | 93 | 1013.2 |
| 20260831030023 | 15 | 181 | 3.2 | 8.0 | 0.23 | 0.71 | 0.69 | 93 | 1013.2 |
| 20260831025523 | 15 | 182 | 4.8 | 8.0 | 0.23 | 0.71 | 0.69 | 93 | 1013.3 |
| 20260831025022 | 15 | 200 | 3.2 | 8.0 | 0.23 | 0.69 | 0.66 | 93 | 1013.3 |
| 20260831024522 | 15 | 209 | 3.2 | 6.4 | 0.23 | 0.69 | 0.66 | 93 | 1013.2 |
| 20260831024024 | 15 | 217 | 3.2 | 8.0 | 0.23 | 0.66 | 0.64 | 93 | 1013.4 |
| 20260831023522 | 15 | 221 | 3.2 | 8.0 | 0.20 | 0.64 | 0.61 | 93 | 1013.4 |
| 20260831023022 | 15 | 223 | 4.8 | 8.0 | 0.20 | 0.64 | 0.61 | 93 | 1013.5 |
| 20260831022521 | 15 | 238 | 3.2 | 6.4 | 0.23 | 0.64 | 0.61 | 93 | 1013.4 |
| 20260831022021 | 16 | 238 | 1.6 | 6.4 | 0.23 | 0.64 | 0.61 | 93 | 1013.2 |
| 20260831021521 | 16 | 238 | 1.6 | 4.8 | 0.23 | 0.61 | 0.61 | 93 | 1013.2 |
| 20260831021021 | 16 | 238 | 1.6 | 4.8 | 0.23 | 0.61 | 0.58 | 93 | 1012.7 |
| 20260831020520 | 16 | 242 | 0.0 | 4.8 | 0.15 | 0.51 | 0.51 | 92 | 1013.1 |
| 20260831020020 | 16 | 242 | 1.6 | 4.8 | 0.15 | 0.48 | 0.46 | 92 | 1013.3 |
| 20260831015519 | 16 | 242 | 0.0 | 3.2 | 0.13 | 0.46 | 0.43 | 92 | 1013.1 |
| 20260831015021 | 16 | 243 | 1.6 | 3.2 | 0.15 | 0.46 | 0.43 | 92 | 1013.0 |
| 20260831014519 | 16 | 243 | 0.0 | 3.2 | 0.13 | 0.43 | 0.43 | 92 | 1013.1 |
| 20260831014019 | 16 | 243 | 0.0 | 3.2 | 0.15 | 0.43 | 0.43 | 92 | 1013.3 |
| 20260831013518 | 16 | 243 | 0.0 | 3.2 | 0.18 | 0.43 | 0.43 | 92 | 1013.1 |
| 20260831013018 | 16 | 243 | 0.0 | 3.2 | 0.20 | 0.43 | 0.43 | 91 | 1013.1 |
| 20260831012518 | 16 | 243 | 0.0 | 3.2 | 0.20 | 0.43 | 0.41 | 91 | 1013.3 |
| 20260831012017 | 16 | 243 | 1.6 | 3.2 | 0.23 | 0.43 | 0.41 | 91 | 1013.2 |
| 20260831011519 | 16 | 243 | 0.0 | 3.2 | 0.23 | 0.41 | 0.38 | 91 | 1013.3 |
| 20260831011016 | 16 | 243 | 0.0 | 4.8 | 0.23 | 0.38 | 0.36 | 91 | 1013.3 |
| 20260831010515 | 16 | 243 | 3.2 | 4.8 | 0.25 | 0.36 | 0.33 | 91 | 1013.1 |
| 20260831010015 | 16 | 245 | 1.6 | 4.8 | 0.25 | 0.33 | 0.33 | 90 | 1013.5 |
| 20260831005515 | 16 | 245 | 0.0 | 0.0 | 0.23 | 0.33 | 0.30 | 91 | 1013.5 |
| 20260831005014 | 16 | 245 | 0.0 | 0.0 | 0.25 | 0.33 | 0.30 | 90 | 1013.6 |
| 20260831004514 | 16 | 245 | 0.0 | 0.0 | 0.28 | 0.33 | 0.30 | 90 | 1013.6 |
| 20260831004016 | 16 | 245 | 0.0 | 0.0 | 0.23 | 0.28 | 0.25 | 90 | 1013.7 |
| 20260831003513 | 16 | 245 | 0.0 | 0.0 | 0.23 | 0.25 | 0.23 | 89 | 1013.7 |
| 20260831003011 | 16 | 245 | 0.0 | 0.0 | 0.23 | 0.23 | 0.23 | 89 | 1013.7 |
| 20260831002511 | 16 | 245 | 0.0 | 0.0 | 0.20 | 0.23 | 0.20 | 88 | 1013.5 |
| 20260831002011 | 16 | 245 | 0.0 | 0.0 | 0.15 | 0.18 | 0.15 | 87 | 1013.5 |
| 20260831001509 | 16 | 245 | 0.0 | 0.0 | 0.15 | 0.15 | 0.15 | 86 | 1013.5 |
| 20260831001009 | 16 | 245 | 0.0 | 6.4 | 0.13 | 0.15 | 0.13 | 86 | 1013.6 |
| 20260831000509 | 17 | 245 | 1.6 | 6.4 | 0.08 | 0.10 | 0.08 | 85 | 1013.4 |
| 20260831000007 | 17 | 245 | 1.6 | 8.0 | 0.05 | 0.08 | 0.05 | 84 | 1013.6 |
| 20260830235507 | 17 | 245 | 4.8 | 8.0 | 0.05 | 0.08 | 0.05 | 82 | 1013.5 |
| 20260830235108 | 17 | 245 | 3.2 | 12.9 | 0.05 | 0.05 | 0.05 | 81 | 1013.4 |
| 20260830234510 | 17 | 245 | 6.4 | 12.9 | 0.03 | 0.05 | 0.03 | 79 | 1013.5 |
| 20260830234006 | 17 | 234 | 6.4 | 12.9 | 0.00 | 0.03 | 0.00 | 79 | 1013.4 |
| 20260830233505 | 17 | 246 | 1.6 | 6.4 | 0.00 | 0.03 | 0.00 | 80 | 1013.2 |
| 20260830233005 | 17 | 246 | 0.0 | 3.2 | 0.00 | 0.03 | 0.00 | 79 | 1013.1 |
| 20260830232505 | 17 | 246 | 0.0 | 3.2 | 0.00 | 0.03 | 0.00 | 79 | 1013.0 |
| 20260830232005 | 17 | 246 | 0.0 | 3.2 | 0.00 | 0.03 | 0.00 | 79 | 1013.1 |
| 20260830231505 | 17 | 246 | 1.6 | 4.8 | 0.00 | 0.03 | 0.00 | 79 | 1012.9 |
| 20260830231003 | 17 | 246 | 1.6 | 4.8 | 0.00 | 0.03 | 0.00 | 80 | 1013.0 |
| 20260830230505 | 17 | 247 | 0.0 | 4.8 | 0.00 | 0.03 | 0.00 | 82 | 1013.2 |
| 20260830230002 | 17 | 247 | 1.6 | 4.8 | 0.00 | 0.03 | 0.00 | 83 | 1013.2 |
| 20260830225502 | 17 | 247 | 0.0 | 0.0 | 0.00 | 0.03 | 0.00 | 82 | 1013.3 |
| 20260830225002 | 17 | 247 | 0.0 | 0.0 | 0.00 | 0.03 | 0.00 | 83 | 1013.2 |
| 20260830224501 | 17 | 247 | 0.0 | 0.0 | 0.00 | 0.03 | 0.00 | 82 | 1013.3 |
| 20260830224003 | 17 | 247 | 0.0 | 0.0 | 0.00 | 0.03 | 0.00 | 81 | 1013.1 |
| 20260830223501 | 16 | 247 | 0.0 | 0.0 | 0.00 | 0.03 | 0.00 | 81 | 1013.1 |
| 20260830223001 | 16 | 247 | 0.0 | 0.0 | 0.00 | 0.03 | 0.00 | 82 | 1013.2 |
| 20260830222600 | 16 | 247 | 0.0 | 0.0 | 0.00 | 0.03 | 0.00 | 81 | 1013.3 |
| 20260830222103 | 17 | 247 | 0.0 | 0.0 | 0.00 | 0.03 | 0.00 | 81 | 1013.2 |
| 20260830221608 | 17 | 247 | 0.0 | 0.0 | 0.00 | 0.03 | 0.00 | 80 | 1013.3 |
| 20260830221057 | 17 | 247 | 0.0 | 0.0 | 0.00 | 0.03 | 0.00 | 79 | 1013.3 |
| 20260830220557 | 17 | 247 | 0.0 | 0.0 | 0.00 | 0.03 | 0.00 | 78 | 1013.4 |
| 20260830220058 | 17 | 247 | 0.0 | 0.0 | 0.00 | 0.03 | 0.00 | 79 | 1013.5 |
| 20260830215556 | 17 | 247 | 0.0 | 1.6 | 0.00 | 0.03 | 0.03 | 78 | 1013.6 |
| 20260830215055 | 17 | 247 | 0.0 | 4.8 | 0.00 | 0.03 | 0.03 | 78 | 1013.5 |
| 20260830214601 | 17 | 247 | 1.6 | 4.8 | 0.00 | 0.03 | 0.03 | 80 | 1013.5 |
| 20260830214053 | 17 | 247 | 0.0 | 0.0 | 0.00 | 0.03 | 0.03 | 81 | 1013.5 |
| 20260830213554 | 17 | 247 | 0.0 | 0.0 | 0.00 | 0.03 | 0.03 | 80 | 1013.5 |
| 20260830213053 | 17 | 247 | 0.0 | 0.0 | 0.00 | 0.03 | 0.03 | 79 | 1013.5 |
| 20260830212555 | 17 | 247 | 0.0 | 0.0 | 0.00 | 0.03 | 0.03 | 80 | 1013.5 |
| 20260830212053 | 17 | 247 | 0.0 | 0.0 | 0.00 | 0.03 | 0.03 | 78 | 1013.5 |
| 20260830211557 | 17 | 247 | 0.0 | 0.0 | 0.00 | 0.03 | 0.03 | 78 | 1013.4 |
| 20260830211053 | 17 | 247 | 0.0 | 0.0 | 0.00 | 0.03 | 0.03 | 79 | 1013.5 |
| 20260830210552 | 17 | 247 | 0.0 | 0.0 | 0.00 | 0.03 | 0.03 | 80 | 1013.6 |
| 20260830210054 | 17 | 247 | 0.0 | 0.0 | 0.00 | 0.03 | 0.03 | 80 | 1013.7 |
| 20260830205551 | 17 | 247 | 0.0 | 0.0 | 0.00 | 0.03 | 0.03 | 78 | 1013.6 |
| 20260830205050 | 17 | 247 | 0.0 | 0.0 | 0.00 | 0.03 | 0.03 | 78 | 1013.6 |
| 20260830204550 | 17 | 247 | 0.0 | 0.0 | 0.00 | 0.03 | 0.03 | 77 | 1013.6 |
| 20260830204050 | 17 | 247 | 0.0 | 0.0 | 0.00 | 0.03 | 0.03 | 77 | 1013.6 |
| 20260830203550 | 17 | 247 | 0.0 | 0.0 | 0.00 | 0.03 | 0.03 | 77 | 1013.6 |
| 20260830203050 | 17 | 247 | 0.0 | 0.0 | 0.00 | 0.03 | 0.03 | 77 | 1013.6 |
| 20260830202549 | 17 | 247 | 0.0 | 0.0 | 0.00 | 0.03 | 0.03 | 77 | 1013.6 |
| 20260830202048 | 17 | 247 | 0.0 | 0.0 | 0.00 | 0.03 | 0.03 | 76 | 1013.6 |
| 20260830201547 | 18 | 247 | 0.0 | 0.0 | 0.00 | 0.03 | 0.03 | 75 | 1013.6 |
| 20260830201047 | 18 | 247 | 0.0 | 3.2 | 0.00 | 0.03 | 0.03 | 73 | 1013.7 |
| 20260830200547 | 18 | 247 | 0.0 | 4.8 | 0.00 | 0.03 | 0.03 | 72 | 1013.7 |
| 20260830200049 | 19 | 247 | 1.6 | 6.4 | 0.00 | 0.03 | 0.03 | 69 | 1013.7 |
| 20260830195547 | 20 | 249 | 1.6 | 6.4 | 0.00 | 0.03 | 0.03 | 65 | 1013.7 |
| 20260830195047 | 20 | 250 | 0.0 | 1.6 | 0.00 | 0.03 | 0.03 | 61 | 1013.7 |
| 20260830194547 | 20 | 250 | 0.0 | 1.6 | 0.00 | 0.03 | 0.03 | 61 | 1013.7 |
| 20260830194046 | 21 | 250 | 0.0 | 3.2 | 0.00 | 0.03 | 0.03 | 61 | 1013.7 |
| 20260830193547 | 21 | 250 | 0.0 | 4.8 | 0.00 | 0.03 | 0.03 | 60 | 1013.7 |
| 20260830193049 | 20 | 250 | 0.0 | 4.8 | 0.00 | 0.03 | 0.03 | 60 | 1013.7 |
| 20260830192549 | 20 | 250 | 0.0 | 4.8 | 0.00 | 0.03 | 0.03 | 60 | 1013.8 |
| 20260830192048 | 21 | 250 | 0.0 | 6.4 | 0.00 | 0.03 | 0.03 | 60 | 1013.8 |
| 20260830191552 | 21 | 250 | 0.0 | 3.2 | 0.00 | 0.03 | 0.03 | 59 | 1013.9 |
| 20260830191049 | 21 | 250 | 1.6 | 3.2 | 0.00 | 0.03 | 0.03 | 59 | 1013.9 |
| 20260830190548 | 21 | 250 | 0.0 | 3.2 | 0.00 | 0.03 | 0.03 | 59 | 1013.9 |
| 20260830190045 | 21 | 250 | 1.6 | 3.2 | 0.00 | 0.03 | 0.03 | 58 | 1013.7 |
| 20260830185544 | 21 | 250 | 0.0 | 3.2 | 0.00 | 0.03 | 0.03 | 58 | 1013.6 |
| 20260830185045 | 21 | 250 | 0.0 | 3.2 | 0.00 | 0.03 | 0.03 | 58 | 1013.6 |
| 20260830184545 | 21 | 250 | 0.0 | 8.0 | 0.00 | 0.03 | 0.03 | 57 | 1013.6 |
| 20260830184046 | 21 | 250 | 1.6 | 3.2 | 0.00 | 0.03 | 0.03 | 57 | 1013.5 |
| 20260830183544 | 21 | 250 | 0.0 | 3.2 | 0.00 | 0.03 | 0.03 | 58 | 1013.4 |
| 20260830183044 | 21 | 250 | 1.6 | 3.2 | 0.00 | 0.03 | 0.03 | 59 | 1013.5 |
| 20260830182545 | 21 | 250 | 0.0 | 1.6 | 0.00 | 0.03 | 0.03 | 59 | 1013.4 |
| 20260830182045 | 21 | 250 | 0.0 | 1.6 | 0.00 | 0.03 | 0.03 | 59 | 1013.4 |
| 20260830181545 | 21 | 250 | 0.0 | 3.2 | 0.00 | 0.03 | 0.03 | 58 | 1013.5 |
| 20260830181044 | 22 | 250 | 0.0 | 0.0 | 0.00 | 0.03 | 0.03 | 58 | 1013.4 |
| 20260830180543 | 22 | 250 | 0.0 | 0.0 | 0.00 | 0.03 | 0.03 | 57 | 1013.4 |
| 20260830180055 | 22 | 250 | 0.0 | 0.0 | 0.00 | 0.03 | 0.03 | 56 | 1013.4 |
| 20260830175543 | 22 | 250 | 0.0 | 1.6 | 0.00 | 0.03 | 0.03 | 56 | 1013.2 |
| 20260830175043 | 22 | 250 | 0.0 | 1.6 | 0.00 | 0.03 | 0.03 | 55 | 1013.2 |
| 20260830174550 | 22 | 250 | 0.0 | 3.2 | 0.00 | 0.03 | 0.03 | 54 | 1013.3 |
| 20260830174042 | 23 | 250 | 0.0 | 3.2 | 0.00 | 0.03 | 0.03 | 54 | 1013.3 |
| 20260830173542 | 23 | 250 | 0.0 | 4.8 | 0.00 | 0.03 | 0.03 | 52 | 1013.3 |
| 20260830173055 | 23 | 250 | 1.6 | 4.8 | 0.00 | 0.03 | 0.03 | 51 | 1013.2 |
| 20260830172543 | 23 | 250 | 1.6 | 4.8 | 0.00 | 0.03 | 0.03 | 51 | 1013.2 |
| 20260830172044 | 23 | 250 | 1.6 | 4.8 | 0.00 | 0.03 | 0.03 | 51 | 1013.3 |
| 20260830171543 | 23 | 250 | 1.6 | 4.8 | 0.00 | 0.03 | 0.03 | 50 | 1013.2 |
| 20260830171043 | 23 | 250 | 1.6 | 4.8 | 0.00 | 0.03 | 0.03 | 50 | 1013.3 |
| 20260830170542 | 23 | 250 | 1.6 | 4.8 | 0.00 | 0.03 | 0.03 | 50 | 1013.3 |
| 20260830170043 | 23 | 250 | 0.0 | 6.4 | 0.00 | 0.03 | 0.03 | 50 | 1013.2 |
| 20260830165543 | 24 | 250 | 1.6 | 8.0 | 0.00 | 0.03 | 0.03 | 51 | 1013.2 |
| 20260830165045 | 24 | 251 | 3.2 | 8.0 | 0.00 | 0.03 | 0.03 | 50 | 1013.1 |
| 20260830164545 | 24 | 249 | 1.6 | 8.0 | 0.00 | 0.03 | 0.03 | 50 | 1013.2 |
| 20260830164041 | 24 | 249 | 3.2 | 8.0 | 0.00 | 0.03 | 0.03 | 51 | 1013.3 |
| 20260830163541 | 24 | 247 | 3.2 | 8.0 | 0.00 | 0.03 | 0.03 | 50 | 1013.2 |
| 20260830163041 | 24 | 246 | 1.6 | 6.4 | 0.00 | 0.03 | 0.03 | 50 | 1013.2 |
| 20260830162543 | 24 | 245 | 1.6 | 11.3 | 0.00 | 0.03 | 0.03 | 50 | 1013.2 |
| 20260830162040 | 24 | 244 | 4.8 | 11.3 | 0.00 | 0.03 | 0.03 | 51 | 1013.2 |
| 20260830161541 | 24 | 253 | 4.8 | 12.9 | 0.00 | 0.03 | 0.03 | 50 | 1013.2 |
| 20260830161041 | 24 | 244 | 4.8 | 12.9 | 0.00 | 0.03 | 0.03 | 51 | 1013.1 |
| 20260830160540 | 24 | 242 | 4.8 | 17.7 | 0.00 | 0.03 | 0.03 | 51 | 1013.2 |
| 20260830160040 | 24 | 250 | 8.0 | 17.7 | 0.00 | 0.03 | 0.03 | 50 | 1013.2 |
| 20260830155540 | 24 | 244 | 6.4 | 14.5 | 0.00 | 0.03 | 0.03 | 51 | 1013.1 |
| 20260830155040 | 24 | 232 | 8.0 | 16.1 | 0.00 | 0.03 | 0.03 | 50 | 1013.1 |
| 20260830154540 | 25 | 235 | 6.4 | 14.5 | 0.00 | 0.03 | 0.03 | 50 | 1013.2 |
| 20260830154040 | 25 | 240 | 4.8 | 16.1 | 0.00 | 0.03 | 0.03 | 49 | 1013.2 |
| 20260830153539 | 25 | 252 | 3.2 | 17.7 | 0.00 | 0.03 | 0.03 | 50 | 1013.2 |
| 20260830153039 | 25 | 249 | 6.4 | 14.5 | 0.00 | 0.03 | 0.03 | 49 | 1013.2 |
| 20260830152539 | 25 | 242 | 4.8 | 16.1 | 0.00 | 0.03 | 0.03 | 48 | 1013.3 |
| 20260830152039 | 25 | 222 | 1.6 | 16.1 | 0.00 | 0.03 | 0.03 | 50 | 1013.2 |
| 20260830151539 | 25 | 241 | 8.0 | 17.7 | 0.00 | 0.03 | 0.03 | 49 | 1013.3 |
| 20260830151041 | 25 | 223 | 6.4 | 11.3 | 0.00 | 0.03 | 0.03 | 49 | 1013.3 |
| 20260830150539 | 25 | 251 | 1.6 | 11.3 | 0.00 | 0.03 | 0.03 | 50 | 1013.3 |
| 20260830150040 | 25 | 251 | 4.8 | 11.3 | 0.00 | 0.03 | 0.03 | 49 | 1013.3 |
| 20260830145542 | 25 | 257 | 4.8 | 11.3 | 0.00 | 0.03 | 0.03 | 47 | 1013.5 |
| 20260830145039 | 25 | 259 | 1.6 | 9.7 | 0.00 | 0.03 | 0.03 | 47 | 1013.3 |
| 20260830144538 | 25 | 261 | 4.8 | 16.1 | 0.00 | 0.03 | 0.03 | 47 | 1013.5 |
| 20260830144038 | 25 | 245 | 8.0 | 16.1 | 0.00 | 0.03 | 0.03 | 48 | 1013.4 |
| 20260830143541 | 25 | 234 | 9.7 | 16.1 | 0.00 | 0.03 | 0.03 | 47 | 1013.5 |
| 20260830143038 | 25 | 250 | 3.2 | 14.5 | 0.00 | 0.03 | 0.03 | 48 | 1013.5 |
| 20260830142538 | 25 | 257 | 6.4 | 14.5 | 0.00 | 0.03 | 0.03 | 50 | 1013.4 |
| 20260830142038 | 25 | 249 | 3.2 | 17.7 | 0.00 | 0.03 | 0.03 | 47 | 1013.4 |
| 20260830141550 | 25 | 249 | 11.3 | 20.9 | 0.00 | 0.03 | 0.03 | 47 | 1013.5 |
| 20260830141037 | 25 | 246 | 11.3 | 17.7 | 0.00 | 0.03 | 0.03 | 47 | 1013.5 |
| 20260830140539 | 25 | 240 | 4.8 | 24.1 | 0.00 | 0.03 | 0.03 | 49 | 1013.5 |
| 20260830140045 | 25 | 249 | 9.7 | 24.1 | 0.00 | 0.03 | 0.03 | 46 | 1013.5 |
| 20260830135536 | 25 | 250 | 3.2 | 17.7 | 0.00 | 0.03 | 0.03 | 48 | 1013.5 |
| 20260830135036 | 25 | 255 | 9.7 | 20.9 | 0.00 | 0.03 | 0.03 | 47 | 1013.5 |
| 20260830134536 | 25 | 253 | 6.4 | 20.9 | 0.00 | 0.03 | 0.03 | 47 | 1013.5 |
| 20260830134035 | 25 | 250 | 6.4 | 19.3 | 0.00 | 0.03 | 0.03 | 47 | 1013.6 |
| 20260830133536 | 25 | 248 | 12.9 | 19.3 | 0.00 | 0.03 | 0.03 | 48 | 1013.6 |
| 20260830133048 | 25 | 248 | 11.3 | 19.3 | 0.00 | 0.03 | 0.03 | 46 | 1013.5 |
| 20260830132536 | 25 | 248 | 6.4 | 22.5 | 0.00 | 0.03 | 0.03 | 46 | 1013.6 |
| 20260830132036 | 25 | 273 | 8.0 | 20.9 | 0.00 | 0.03 | 0.03 | 47 | 1013.7 |
| 20260830131535 | 25 | 262 | 4.8 | 19.3 | 0.00 | 0.03 | 0.03 | 46 | 1013.6 |
| 20260830131038 | 26 | 266 | 8.0 | 17.7 | 0.00 | 0.03 | 0.03 | 46 | 1013.7 |
| 20260830130534 | 25 | 250 | 3.2 | 17.7 | 0.00 | 0.03 | 0.03 | 47 | 1013.7 |
| 20260830130034 | 25 | 254 | 3.2 | 19.3 | 0.00 | 0.03 | 0.03 | 46 | 1013.7 |
| 20260830125534 | 25 | 221 | 9.7 | 25.7 | 0.00 | 0.03 | 0.03 | 49 | 1013.7 |
| 20260830125033 | 25 | 240 | 11.3 | 27.4 | 0.00 | 0.03 | 0.03 | 49 | 1013.7 |
| 20260830124533 | 25 | 269 | 8.0 | 27.4 | 0.00 | 0.03 | 0.03 | 50 | 1013.8 |
| 20260830124035 | 25 | 261 | 6.4 | 17.7 | 0.00 | 0.03 | 0.03 | 50 | 1013.8 |
| 20260830123535 | 25 | 275 | 8.0 | 17.7 | 0.00 | 0.03 | 0.03 | 49 | 1013.9 |
| 20260830123032 | 25 | 271 | 4.8 | 14.5 | 0.00 | 0.03 | 0.03 | 49 | 1014.0 |
| 20260830122532 | 26 | 267 | 4.8 | 16.1 | 0.00 | 0.03 | 0.03 | 48 | 1013.7 |
| 20260830122034 | 26 | 304 | 3.2 | 16.1 | 0.00 | 0.03 | 0.03 | 49 | 1013.9 |
| 20260830121531 | 25 | 289 | 3.2 | 20.9 | 0.00 | 0.03 | 0.03 | 50 | 1013.8 |
| 20260830121032 | 25 | 271 | 6.4 | 20.9 | 0.00 | 0.03 | 0.03 | 51 | 1013.9 |
| 20260830120530 | 25 | 266 | 6.4 | 16.1 | 0.00 | 0.03 | 0.03 | 51 | 1013.9 |
| 20260830120030 | 26 | 337 | 3.2 | 14.5 | 0.00 | 0.03 | 0.03 | 50 | 1013.9 |
| 20260830115530 | 26 | 290 | 1.6 | 11.3 | 0.00 | 0.03 | 0.03 | 51 | 1014.0 |
| 20260830115028 | 25 | 257 | 3.2 | 19.3 | 0.00 | 0.03 | 0.03 | 53 | 1014.0 |
| 20260830114551 | 25 | 279 | 8.0 | 29.0 | 0.00 | 0.03 | 0.03 | 53 | 1014.0 |
| 20260830114029 | 25 | 247 | 14.5 | 29.0 | 0.00 | 0.03 | 0.03 | 53 | 1014.1 |
| 20260830113527 | 25 | 263 | 8.0 | 22.5 | 0.00 | 0.03 | 0.03 | 53 | 1014.0 |
| 20260830113026 | 25 | 254 | 6.4 | 17.7 | 0.00 | 0.03 | 0.03 | 52 | 1013.9 |
| 20260830112527 | 25 | 279 | 4.8 | 20.9 | 0.00 | 0.03 | 0.03 | 53 | 1014.0 |
| 20260830112025 | 25 | 281 | 6.4 | 20.9 | 0.00 | 0.03 | 0.03 | 54 | 1014.0 |
| 20260830111524 | 24 | 264 | 4.8 | 16.1 | 0.00 | 0.03 | 0.03 | 54 | 1014.1 |
| 20260830111024 | 24 | 259 | 8.0 | 16.1 | 0.00 | 0.03 | 0.03 | 55 | 1014.0 |
| 20260830110523 | 23 | 261 | 4.8 | 24.1 | 0.00 | 0.03 | 0.03 | 57 | 1014.1 |
| 20260830110023 | 23 | 263 | 9.7 | 24.1 | 0.00 | 0.03 | 0.03 | 58 | 1014.0 |
| 20260830105522 | 23 | 255 | 8.0 | 16.1 | 0.00 | 0.03 | 0.03 | 58 | 1014.2 |
| 20260830105022 | 23 | 281 | 6.4 | 16.1 | 0.00 | 0.03 | 0.03 | 58 | 1014.2 |
| 20260830104527 | 23 | 274 | 4.8 | 20.9 | 0.00 | 0.03 | 0.03 | 58 | 1014.2 |
| 20260830104022 | 23 | 287 | 4.8 | 20.9 | 0.00 | 0.03 | 0.03 | 57 | 1014.2 |
| 20260830103524 | 23 | 267 | 8.0 | 20.9 | 0.00 | 0.03 | 0.03 | 58 | 1014.3 |
| 20260830103026 | 23 | 263 | 4.8 | 17.7 | 0.00 | 0.03 | 0.03 | 57 | 1014.4 |
| 20260830102524 | 23 | 240 | 9.7 | 25.7 | 0.00 | 0.03 | 0.03 | 57 | 1014.4 |
| 20260830102021 | 24 | 278 | 6.4 | 20.9 | 0.00 | 0.03 | 0.03 | 59 | 1014.3 |
| 20260830101521 | 24 | 283 | 6.4 | 16.1 | 0.00 | 0.03 | 0.03 | 57 | 1014.4 |
| 20260830101022 | 24 | 271 | 6.4 | 27.4 | 0.00 | 0.03 | 0.03 | 57 | 1014.5 |
| 20260830100519 | 24 | 278 | 4.8 | 27.4 | 0.00 | 0.03 | 0.03 | 59 | 1014.4 |
| 20260830100021 | 23 | 301 | 3.2 | 22.5 | 0.00 | 0.03 | 0.03 | 62 | 1014.4 |
| 20260830095519 | 23 | 250 | 11.3 | 22.5 | 0.00 | 0.03 | 0.03 | 62 | 1014.5 |
| 20260830095018 | 23 | 286 | 4.8 | 19.3 | 0.00 | 0.03 | 0.03 | 62 | 1014.5 |
| 20260830094518 | 23 | 254 | 4.8 | 16.1 | 0.00 | 0.03 | 0.03 | 63 | 1014.5 |
| 20260830094016 | 23 | 283 | 4.8 | 20.9 | 0.00 | 0.03 | 0.03 | 64 | 1014.6 |
| 20260830093516 | 22 | 260 | 6.4 | 20.9 | 0.00 | 0.03 | 0.03 | 65 | 1014.6 |
| 20260830093014 | 23 | 252 | 8.0 | 19.3 | 0.00 | 0.03 | 0.03 | 67 | 1014.7 |
| 20260830092513 | 23 | 275 | 4.8 | 12.9 | 0.00 | 0.03 | 0.03 | 67 | 1014.6 |
| 20260830092014 | 23 | 279 | 3.2 | 17.7 | 0.00 | 0.03 | 0.03 | 69 | 1014.5 |
| 20260830091510 | 22 | 313 | 3.2 | 19.3 | 0.00 | 0.03 | 0.03 | 70 | 1014.5 |
| 20260830091010 | 22 | 259 | 8.0 | 19.3 | 0.00 | 0.03 | 0.03 | 71 | 1014.6 |
| 20260830090509 | 22 | 265 | 4.8 | 22.5 | 0.00 | 0.03 | 0.03 | 72 | 1014.6 |
| 20260830090014 | 22 | 271 | 6.4 | 22.5 | 0.00 | 0.03 | 0.03 | 71 | 1014.5 |
| 20260830085511 | 22 | 262 | 3.2 | 14.5 | 0.00 | 0.03 | 0.03 | 74 | 1014.4 |
| 20260830085009 | 21 | 261 | 4.8 | 14.5 | 0.00 | 0.03 | 0.03 | 75 | 1014.5 |
| 20260830084505 | 21 | 263 | 4.8 | 16.1 | 0.00 | 0.03 | 0.03 | 76 | 1014.5 |
| 20260830084004 | 21 | 259 | 4.8 | 17.7 | 0.00 | 0.03 | 0.03 | 77 | 1014.5 |
| 20260830083505 | 20 | 252 | 3.2 | 9.7 | 0.00 | 0.03 | 0.03 | 79 | 1014.3 |
| 20260830083004 | 20 | 267 | 3.2 | 12.9 | 0.00 | 0.03 | 0.03 | 77 | 1014.2 |